Tiempo atmosférico en la estación meteorológica de Xinzo De Limia, Ourense (600 m.)



Fecha
DESCASC
Temp. máxima en grados centígrados (hora)
DESCASC
Temp. mínima en grados centígrados (hora)
DESCASC
Temp. media en grados centígrados
DESCASC
Racha de viento máxima en m/sg (hora)
DESCASC
Velocidad máxima media en intervalos de 10 minutos(hora)
DESCASC
Precipitaciones diarias en mm
DESCASC
Precipitaciones de 00:00 a 06:00 en mm
DESCASC
Precipitaciones de 06:00 a 12:00 en mm
DESCASC
Precipitaciones de 12:00 a 18:00 en mm
DESCASC
Precipitaciones de 18:00 a 24:00 en mm
DESCASC
18-01-2020 13.1 (14:30) 4.1 (00:00) 8.6 15.28 (15:20) 7.5 (15:30) 6.2 0.7 0.1 2 3.4
16-01-2020 11.6 (01:20) 5.9 (00:00) 8.8 14.17 (14:40) 7.5 (18:30) 4.2 0.5 1.2 0.3 2.2
14-01-2020 11 (13:30) 3.9 (00:00) 7.5 12.22 (17:00) 7.22 (17:50) 0.9 0 0 0 0.9
03-01-2020 10.2 (13:50) 3.2 (00:00) 6.7 3.89 (09:30) 2.5 (09:30) 0.9 0 0 0.8 0.1
15-01-2020 13.7 (14:40) 5.9 (00:00) 9.8 12.5 (03:50) 6.11 (03:20) 13.6 3.7 9.8 0 0.1
11-01-2020 10.1 (16:00) -5.8 (-00:0) 2.2 7.78 (14:30) 4.72 (13:20) 0 0 0 0 0
25-01-2020 11.5 (15:50) -4 (-00:0) 3.8 4.17 (16:10) 2.78 (16:30) 0 0 0 0 0
24-01-2020 8.1 (14:30) -1.8 (-00:0) 3.2 5.83 (11:30) 3.61 (03:40) 0 0 0 0 0
23-01-2020 10.4 (15:50) -3.7 (-00:0) 3.3 8.33 (14:40) 4.72 (14:40) 0 0 0 0 0
22-01-2020 10 (14:10) -2.6 (-00:0) 3.7 6.39 (15:50) 4.17 (16:00) 0 0 0 0 0
21-01-2020 8.6 (17:00) -5.4 (-00:0) 1.6 8.61 (15:50) 5.83 (16:20) 0 0 0 0 0
20-01-2020 8.4 (15:40) -2.7 (-00:0) 2.8 13.61 (13:20) 9.72 (12:30) 0 0 0 0 0
19-01-2020 9 (15:40) -2 (-00:0) 3.5 11.94 (13:50) 5.83 (03:50) 0.2 0.1 0.1 0 0
17-01-2020 8.1 (15:50) 2.5 (00:00) 5.3 8.89 (02:20) 4.72 (02:30) 3.6 2.8 0.8 0 0
13-01-2020 9.8 (16:00) -3.9 (-00:0) 3 9.72 (20:30) 5.83 (22:30) 0 0 0 0 0
12-01-2020 13 (16:40) -8.6 (09:20) 2.2 2.5 (19:10) 1.39 (19:10) 0 0 0 0 0
27-12-2019 10 (13:40) -1.7 (-00:0) 4.1 11.67 (15:20) 7.5 (14:10) 0 0 0 0 0
10-01-2020 8.4 (16:40) -3.1 (-00:0) 2.6 7.78 (12:40) 5 (12:40) 0 0 0 0 0
09-01-2020 12.1 (12:30) 2.1 (00:00) 7.1 12.22 (15:40) 7.22 (15:40) 0.2 0 0 0.2 0
08-01-2020 14.5 (17:10) -4.2 (-00:0) 5.2 2.5 (14:00) 1.67 (23:30) 0 0 0 0 0
07-01-2020 12.6 (16:10) -5.9 (-00:0) 3.4 4.72 (03:00) 3.06 (03:00) 0 0 0 0 0
06-01-2020 8.9 (16:20) -6.1 (-00:0) 1.4 3.33 (00:10) 1.94 (00:10) 0 0 0 0 0
05-01-2020 6.6 (15:00) -4.9 (-00:0) 0.8 7.5 (12:50) 5 (12:50) 0 0 0 0 0
04-01-2020 7.2 (14:10) 1.3 (00:00) 4.2 10 (19:10) 5.83 (17:40) 0.1 0.1 0 0 0
02-01-2020 10.2 (14:30) -4.6 (-00:0) 2.8 8.33 (16:30) 4.44 (16:10) 0 0 0 0 0
01-01-2020 15.1 (16:40) -8 (-00:0) 3.6 2.78 (22:20) 1.67 (21:20) 0 0 0 0 0
31-12-2019 13.2 (17:20) -4.8 (-00:0) 4.2 2.78 (01:20) 1.39 (16:10) 0 0 0 0 0
30-12-2019 17.9 (16:20) -4 (-00:0) 6.9 2.5 (14:20) 1.94 (01:00) 0 0 0 0 0
29-12-2019 18.8 (15:50) -2.9 (-00:0) 7.9 5.56 (14:50) 2.78 (14:40) 0 0 0 0 0
28-12-2019 17 (15:30) -3.4 (-00:0) 6.8 7.22 (14:00) 4.44 (14:10) 0 0 0 0 0

Gráficas

Temp. máximas Temp. mínimas Temp. medias Precipitaciones Rachas de viento máximas Velocidades máximas media en intervalos de 10 minutos

Datos horarios

Fecha y hora oficial Temperatura (ºC) Velocidad del viento (km/h) Dirección del viento Racha (km/h) Dirección de racha Precipitación (mm) Presión (hPa) Tendencia (hPa) Humedad (%)
2020-01-25 23:00:00 3.4 4 Sur 8 Sudoeste 0 -- -- 80
2020-01-25 22:00:00 4.4 4 Sudoeste 8 Sudoeste 0 -- -- 78
2020-01-25 21:00:00 4.9 2 Sur 5 Sudoeste 0 -- -- 74
2020-01-25 20:00:00 5.1 0 Calma 5 Noroeste 0 -- -- 68
2020-01-25 19:00:00 6.2 0 Calma 9 Norte 0 -- -- 63
2020-01-25 18:00:00 8.4 8 Noroeste 14 Norte 0 -- -- 55
2020-01-25 17:00:00 9.7 3 Noroeste 15 Norte 0 -- -- 55
2020-01-25 16:00:00 11 3 Norte 12 Este 0 -- -- 50
2020-01-25 15:00:00 9.5 4 Sur 8 Sudoeste 0 -- -- 67
2020-01-25 14:00:00 8.5 3 Noroeste 6 Noroeste 0 -- -- 80
2020-01-25 13:00:00 8.6 0 Calma 5 Este 0 -- -- 95
2020-01-25 12:00:00 4.2 3 Sur 6 Sudoeste 0 -- -- 95
2020-01-25 11:00:00 0.1 3 Sudoeste 5 Sudoeste 0 -- -- 95
2020-01-25 10:00:00 -1.6 0 Calma -- -- 0 -- -- 95
2020-01-25 09:00:00 -1.8 0 Calma 4 Sudoeste 0 -- -- 95
2020-01-25 08:00:00 -2.2 0 Calma 8 Sudoeste 0 -- -- 95
2020-01-25 07:00:00 -2.8 0 Calma 4 Sudoeste 0 -- -- 95
2020-01-25 06:00:00 -3.8 0 Calma 6 Oeste 0 -- -- 95
2020-01-25 05:00:00 -3.7 3 Oeste 5 Oeste 0 -- -- 95
2020-01-25 04:00:00 -3.5 0 Calma 6 Sudoeste 0 -- -- 94
2020-01-25 03:00:00 -3.4 5 Sur 7 Sur 0 -- -- 94
2020-01-25 02:00:00 -2.8 4 Sudoeste 5 Sudoeste 0 -- -- 93
2020-01-25 01:00:00 -2.2 3 Sudoeste 4 Oeste 0 -- -- 93
2020-01-25 00:00:00 -1.6 4 Sudoeste 5 Sudoeste 0 -- -- 92
2020-01-24 23:00:00 -0.2 2 Sudoeste 4 Sudoeste 0 -- -- 91
2020-01-24 22:00:00 0.6 2 Sudoeste 5 Sudoeste 0 -- -- 90
2020-01-24 21:00:00 2.7 0 Calma 8 Sudeste 0 -- -- 89
2020-01-24 20:00:00 3.7 6 Sudeste 12 Sudeste 0 -- -- 87
2020-01-24 19:00:00 4.7 3 Este 11 Este 0 -- -- 82
2020-01-24 18:00:00 6.6 7 Este 14 Sudeste 0 -- -- 79
2020-01-24 17:00:00 7.2 8 Sudeste 13 Sudeste 0 -- -- 76
2020-01-24 16:00:00 7.5 7 Sudeste 13 Sudeste 0 -- -- 75
2020-01-24 15:00:00 8.1 4 Sudeste 17 Sudeste 0 -- -- 76
2020-01-24 14:00:00 7.6 10 Sudeste 18 Sudeste 0 -- -- 80
2020-01-24 13:00:00 7.1 9 Sudeste 18 Sudeste 0 -- -- 88
2020-01-24 12:00:00 7 10 Sudeste 21 Sudeste 0 -- -- 90
2020-01-24 11:00:00 5.2 7 Sur 14 Sur 0 -- -- 92
2020-01-24 10:00:00 3.3 6 Sudeste 13 Sudeste 0 -- -- 92
2020-01-24 09:00:00 0.9 6 Este 12 Sur 0 -- -- 92
2020-01-24 08:00:00 2.9 7 Sur 17 Sur 0 -- -- 92
2020-01-24 07:00:00 2.5 11 Sur 16 Sur 0 -- -- 91
2020-01-24 06:00:00 2.5 8 Sudeste 13 Sudeste 0 -- -- 90
2020-01-24 05:00:00 3.6 3 Este 9 Noroeste 0 -- -- 89
2020-01-24 04:00:00 4 4 Sudeste 19 Sudeste 0 -- -- 87
2020-01-24 03:00:00 4.7 6 Sur 13 Sudeste 0 -- -- 83
2020-01-24 02:00:00 4.1 7 Sudeste 14 Sudeste 0 -- -- 84
2020-01-24 01:00:00 3.9 8 Sudeste 12 Sudeste 0 -- -- 84
2020-01-24 00:00:00 3.9 6 Sudeste 17 Este 0 -- -- 84
2020-01-23 23:00:00 1.7 5 Nordeste 11 Norte 0 -- -- 83
2020-01-23 22:00:00 2.7 0 Calma 11 Sudeste 0 -- -- 81
2020-01-23 21:00:00 3.4 4 Sudeste 8 Sur 0 -- -- 79
2020-01-23 20:00:00 3.3 0 Calma 9 Norte 0 -- -- 76
2020-01-23 19:00:00 5.1 4 Nordeste 14 Sudeste 0 -- -- 67
2020-01-23 18:00:00 7.6 8 Sudeste 24 Sur 0 -- -- 61
2020-01-23 17:00:00 8.6 9 Sudeste 21 Sudeste 0 -- -- 58
2020-01-23 16:00:00 9.8 9 Sudeste 26 Sudeste 0 -- -- 56
2020-01-23 15:00:00 9.8 13 Sudeste 30 Sudeste 0 -- -- 58
2020-01-23 14:00:00 8 13 Sudeste 26 Sudeste 0 -- -- 74
2020-01-23 13:00:00 4.4 8 Sudeste 13 Sudeste 0 -- -- 95
2020-01-23 12:00:00 1.1 3 Norte 7 Norte 0 -- -- 94
2020-01-23 11:00:00 -1.2 2 Nordeste 11 Norte 0 -- -- 94
2020-01-23 10:00:00 -2.1 5 Nordeste 10 Nordeste 0 -- -- 95
2020-01-23 09:00:00 -2.6 4 Sudoeste 10 Nordeste 0 -- -- 94
2020-01-23 08:00:00 -3.1 8 Nordeste 12 Nordeste 0 -- -- 95
2020-01-23 07:00:00 -3.6 6 Nordeste 10 Nordeste 0 -- -- 94
2020-01-23 06:00:00 -2.8 4 Este 9 Este 0 -- -- 94
2020-01-23 05:00:00 -2.5 4 Este 8 Sudeste 0 -- -- 93
2020-01-23 04:00:00 -2.8 3 Nordeste 9 Nordeste 0 -- -- 92
2020-01-23 03:00:00 -2 0 Calma 9 Sur 0 -- -- 92
2020-01-23 02:00:00 -0.5 0 Calma 10 Oeste 0 -- -- 90
2020-01-23 01:00:00 0.3 3 Sudoeste 10 Sudoeste 0 -- -- 89
2020-01-23 00:00:00 1.1 0 Calma 9 Sudeste 0 -- -- 87
2020-01-22 23:00:00 2.3 6 Sudeste 11 Sudeste 0 -- -- 87
2020-01-22 22:00:00 1.7 0 Calma 9 Sur 0 -- -- 84
2020-01-22 21:00:00 2.1 4 Sudoeste 10 Sudoeste 0 -- -- 81
2020-01-22 20:00:00 3 2 Oeste 10 Oeste 0 -- -- 74
2020-01-22 19:00:00 4.9 2 Norte 5 Nordeste 0 -- -- 66
2020-01-22 18:00:00 7.7 3 Sudeste 9 Este 0 -- -- 60
2020-01-22 17:00:00 8 4 Nordeste 18 Nordeste 0 -- -- 60
2020-01-22 16:00:00 9.5 15 Nordeste 23 Nordeste 0 -- -- 57
2020-01-22 15:00:00 9.3 3 Este 9 Sudeste 0 -- -- 57
2020-01-22 14:00:00 9.8 4 Este 12 Este 0 -- -- 58
2020-01-22 13:00:00 8.6 5 Nordeste 10 Nordeste 0 -- -- 68
2020-01-22 12:00:00 4.3 0 Calma 6 Sur 0 -- -- 89
2020-01-22 11:00:00 2 0 Calma 9 Norte 0 -- -- 93
2020-01-22 10:00:00 -0.6 3 Norte 13 Sudeste 0 -- -- 93
2020-01-22 09:00:00 -2.4 0 Calma 9 Sur 0 -- -- 92
2020-01-22 08:00:00 -1.9 2 Sudoeste 5 Sudeste 0 -- -- 92
2020-01-22 07:00:00 -1.9 0 Calma 6 Norte 0 -- -- 90
2020-01-22 06:00:00 -1.8 0 Calma 9 Sur 0 -- -- 89
2020-01-22 05:00:00 -1.2 3 Sudoeste 6 Norte 0 -- -- 87
2020-01-22 04:00:00 -0.1 3 Oeste 11 Sudoeste 0 -- -- 85
2020-01-22 03:00:00 0.2 5 Sudoeste 10 Sudoeste 0 -- -- 84
2020-01-22 02:00:00 0.3 5 Sudoeste 9 Norte 0 -- -- 81
2020-01-22 01:00:00 1.1 3 Norte 14 Nordeste 0 -- -- 78
2020-01-22 00:00:00 2.4 5 Sudeste 13 Este 0 -- -- 76
2020-01-21 23:00:00 2.1 6 Nordeste 21 Norte 0 -- -- 76
2020-01-21 22:00:00 2.5 13 Nordeste 25 Nordeste 0 -- -- 75
2020-01-21 21:00:00 3.2 13 Nordeste 25 Norte 0 -- -- 69
2020-01-21 20:00:00 4.5 18 Nordeste 31 Nordeste 0 -- -- 65
2020-01-21 19:00:00 5.1 17 Nordeste 30 Nordeste 0 -- -- 61
2020-01-21 18:00:00 6.9 13 Nordeste 28 Nordeste 0 -- -- 55
2020-01-21 17:00:00 8.6 18 Norte 31 Norte 0 -- -- 52
2020-01-21 16:00:00 7.4 19 Norte 31 Norte 0 -- -- 52
2020-01-21 15:00:00 -- 14 Norte 29 Norte 0 -- -- --
2020-01-21 14:00:00 8.2 13 Norte 24 Norte 0 -- -- 51
2020-01-21 13:00:00 6.7 12 Norte 21 Noroeste 0 -- -- 55
2020-01-21 12:00:00 3.6 4 Sudoeste 11 Sudoeste 0 -- -- 76
2020-01-21 11:00:00 0.7 5 Sur 11 Sur 0 -- -- 88
2020-01-21 10:00:00 -2.7 2 Sur 8 Sur 0 -- -- 91
2020-01-21 09:00:00 -4.8 4 Sudoeste 8 Sur 0 -- -- 91
2020-01-21 08:00:00 -5.1 0 Calma 7 Sur 0 -- -- 89
2020-01-21 07:00:00 -4.4 3 Sudeste 9 Oeste 0 -- -- 89
2020-01-21 06:00:00 -4.2 5 Sudoeste 9 Sur 0 -- -- 88
2020-01-21 05:00:00 -4.8 4 Sur 8 Sur 0 -- -- 86
2020-01-21 04:00:00 -4.1 4 Sur 7 Sudeste 0 -- -- 84
2020-01-21 03:00:00 -4 4 Sudeste 6 Sudeste 0 -- -- 82
2020-01-21 02:00:00 -3.3 3 Sur 9 Sudoeste 0 -- -- 77
2020-01-21 01:00:00 -2.4 6 Sur 9 Sur 0 -- -- 71
2020-01-21 00:00:00 -1.7 5 Sur 12 Noroeste 0 -- -- 67
2020-01-20 23:00:00 -0.6 6 Noroeste 14 Noroeste 0 -- -- 62
2020-01-20 22:00:00 0.7 5 Noroeste 14 Norte 0 -- -- 58
2020-01-20 21:00:00 1.2 2 Noroeste 25 Nordeste 0 -- -- 55
2020-01-20 20:00:00 1.8 12 Norte 27 Norte 0 -- -- 52
2020-01-20 19:00:00 3.1 17 Norte 25 Norte 0 -- -- 45
2020-01-20 18:00:00 5.4 15 Nordeste 28 Nordeste 0 -- -- 34
2020-01-20 17:00:00 7.2 19 Nordeste 30 Nordeste 0 -- -- 31
2020-01-20 16:00:00 8.2 16 Nordeste 32 Nordeste 0 -- -- 30
2020-01-20 15:00:00 7.8 21 Nordeste 43 Este 0 -- -- 34
2020-01-20 14:00:00 6.8 26 Nordeste 49 Nordeste 0 -- -- 39
2020-01-20 13:00:00 5.4 33 Nordeste 49 Nordeste 0 -- -- 43
2020-01-20 12:00:00 3.7 22 Nordeste 37 Nordeste 0 -- -- 53
2020-01-20 11:00:00 1.5 20 Norte 36 Norte 0 -- -- 67
2020-01-20 10:00:00 -0.1 21 Norte 30 Norte 0 -- -- 73
2020-01-20 09:00:00 -2.5 5 Este 23 Norte 0 -- -- 74
2020-01-20 08:00:00 -2 11 Norte 20 Nordeste 0 -- -- 70
2020-01-20 07:00:00 -0.8 17 Norte 26 Nordeste 0 -- -- 65
2020-01-20 06:00:00 -2 2 Noroeste 17 Noroeste 0 -- -- 75
2020-01-20 05:00:00 -1.7 12 Norte 18 Norte 0 -- -- 75
2020-01-20 04:00:00 -1.5 12 Norte 21 Norte 0 -- -- 73
2020-01-20 03:00:00 -1.2 15 Norte 22 Norte 0 -- -- 72
2020-01-20 02:00:00 -1.9 3 Sudeste 15 Norte 0 -- -- 71
2020-01-20 01:00:00 -1.3 12 Norte 25 Norte 0 -- -- 69
2020-01-20 00:00:00 -2 3 Este 12 Norte 0 -- -- 66
2020-01-19 23:00:00 -0.5 3 Sudeste 25 Norte 0 -- -- 63
2020-01-19 22:00:00 0 14 Norte 21 Norte 0 -- -- 61
2020-01-19 21:00:00 1.1 13 Norte 19 Noroeste 0 -- -- 60
2020-01-19 20:00:00 2.2 11 Norte 18 Norte 0 -- -- 57
2020-01-19 19:00:00 3.4 8 Norte 30 Norte 0 -- -- 54
2020-01-19 18:00:00 5.8 16 Norte 26 Nordeste 0 -- -- 48
2020-01-19 17:00:00 7.9 17 Norte 30 Norte 0 -- -- 49
2020-01-19 16:00:00 8.6 17 Norte 26 Norte 0 -- -- 50
2020-01-19 15:00:00 8.9 15 Norte 29 Norte 0 -- -- 50
2020-01-19 14:00:00 8.1 17 Norte 43 Norte 0 -- -- 52
2020-01-19 13:00:00 7.4 18 Norte 32 Noroeste 0 -- -- 57
2020-01-19 12:00:00 6 18 Noroeste 30 Noroeste 0 -- -- 63
2020-01-19 11:00:00 4.7 18 Norte 28 Noroeste 0 -- -- 73
2020-01-19 10:00:00 3.8 17 Norte 31 Noroeste 0.1 -- -- 78
2020-01-19 09:00:00 4.1 15 Norte 29 Norte 0 -- -- 80
2020-01-19 08:00:00 4.8 12 Norte 23 Norte 0 -- -- 85
2020-01-19 07:00:00 5.4 11 Noroeste 25 Noroeste 0 -- -- 90
2020-01-19 06:00:00 5.4 14 Norte 29 Noroeste 0 -- -- 92
2020-01-19 05:00:00 5.2 17 Norte 30 Noroeste 0 -- -- 93
2020-01-19 04:00:00 4.9 18 Norte 33 Norte 0 -- -- 92
2020-01-19 03:00:00 4.6 10 Noroeste 26 Noroeste 0 -- -- 92
2020-01-19 02:00:00 5 16 Noroeste 25 Norte 0 -- -- 93
2020-01-19 01:00:00 5.3 13 Norte 27 Noroeste 0.1 -- -- 92
2020-01-19 00:00:00 5.4 8 Noroeste 17 Noroeste 0.6 -- -- 92
2020-01-18 23:00:00 5.7 7 Noroeste 24 Oeste 2 -- -- 92
2020-01-18 22:00:00 5.8 12 Oeste 31 Noroeste 0.2 -- -- 91
2020-01-18 21:00:00 5.5 9 Oeste 23 Oeste 0.5 -- -- 88
2020-01-18 20:00:00 5.6 9 Oeste 31 Oeste 0.1 -- -- 84
2020-01-18 19:00:00 6.1 14 Oeste 34 Oeste 0 -- -- 76
2020-01-18 18:00:00 6.7 10 Oeste 36 Oeste 0 -- -- 76
2020-01-18 17:00:00 6.9 19 Oeste 48 Noroeste 0.7 -- -- 79
2020-01-18 16:00:00 8.7 18 Oeste 55 Noroeste 0.8 -- -- 74
2020-01-18 15:00:00 10.2 20 Oeste 44 Oeste 0.5 -- -- 79
2020-01-18 14:00:00 12.2 20 Sudoeste 43 Oeste 0 -- -- 83
2020-01-18 13:00:00 12.1 10 Sudoeste 26 Sudoeste 0 -- -- 82
2020-01-18 12:00:00 9.5 11 Sudeste 37 Sudeste 0 -- -- 87
2020-01-18 11:00:00 7 23 Sudeste 39 Sudeste 0 -- -- 92
2020-01-18 10:00:00 5.3 19 Sudeste 35 Sudeste 0 -- -- 92
2020-01-18 09:00:00 4.8 18 Sudeste 33 Sudeste 0 -- -- 92
2020-01-18 08:00:00 4.6 19 Sudeste 37 Sudeste 0 -- -- 92
2020-01-18 07:00:00 4.1 21 Sudeste 41 Sudeste 0.1 -- -- 91
2020-01-18 06:00:00 4.2 17 Sudeste 34 Sudeste 0.4 -- -- 89
2020-01-18 05:00:00 4.1 18 Sudeste 36 Sudeste 0.2 -- -- 84
2020-01-18 04:00:00 4.7 21 Sudeste 41 Sudeste 0 -- -- 78
2020-01-18 03:00:00 4.5 18 Sudeste 33 Sudeste 0.1 -- -- 78
2020-01-18 02:00:00 5 16 Sudeste 27 Sudeste 0 -- -- 69
2020-01-18 01:00:00 5.2 13 Sudeste 21 Sudeste 0 -- -- 68
2020-01-18 00:00:00 5.3 13 Sudeste 22 Sudeste 0 -- -- 68
2020-01-17 23:00:00 5.2 12 Sudeste 21 Sudeste 0 -- -- 72
2020-01-17 22:00:00 5.1 13 Sudeste 24 Sudeste 0 -- -- 76
2020-01-17 21:00:00 4.9 9 Sudeste 16 Sudeste 0 -- -- 79
2020-01-17 20:00:00 5.1 8 Sudeste 14 Sudeste 0 -- -- 80
2020-01-17 19:00:00 5.5 3 Sudoeste 4 Sudoeste 0 -- -- 76
2020-01-17 18:00:00 6.3 0 Calma 9 Nordeste 0 -- -- 70
2020-01-17 17:00:00 7.3 2 Norte 8 Oeste 0 -- -- 61
2020-01-17 16:00:00 7.9 5 Oeste 15 Sudoeste 0 -- -- 63
2020-01-17 15:00:00 7.3 0 Calma 7 Noroeste 0 -- -- 68
2020-01-17 14:00:00 7.3 4 Norte 9 Nordeste 0 -- -- 72
2020-01-17 13:00:00 6.9 4 Noroeste 12 Oeste 0 -- -- 76
2020-01-17 12:00:00 6.2 3 Sudoeste 10 Oeste 0 -- -- 85
2020-01-17 11:00:00 5.8 5 Sudoeste 10 Sudoeste 0 -- -- 91
2020-01-17 10:00:00 2.7 0 Calma 10 Oeste 0 -- -- 92
2020-01-17 09:00:00 2.9 5 Oeste 17 Oeste 0.7 -- -- 92
2020-01-17 08:00:00 2.7 4 Oeste 9 Oeste 0.1 -- -- 91
2020-01-17 07:00:00 2.5 2 Sudoeste 16 Oeste 0 -- -- 91
2020-01-17 06:00:00 4.3 11 Oeste 28 Oeste 0.4 -- -- 92
2020-01-17 05:00:00 4.2 3 Oeste 13 Oeste 0 -- -- 92
2020-01-17 04:00:00 5.4 8 Oeste 16 Oeste 0.7 -- -- 92
2020-01-17 03:00:00 5.8 6 Sudoeste 32 Norte 1.5 -- -- 91
2020-01-17 02:00:00 5.8 5 Sudoeste 13 Sudoeste 0 -- -- 91
2020-01-17 01:00:00 5.7 5 Sudoeste 10 Sur 0.2 -- -- 90
2020-01-17 00:00:00 5.9 7 Sur 26 Oeste 1.5 -- -- 89
2020-01-16 23:00:00 7 8 Sudoeste 19 Sudoeste 0.5 -- -- 86
2020-01-16 22:00:00 7.3 3 Sudoeste 18 Sudoeste 0 -- -- 84
2020-01-16 21:00:00 7.1 2 Nordeste 23 Sudoeste 0 -- -- 84
2020-01-16 20:00:00 8.2 12 Sudoeste 36 Oeste 0 -- -- 81
2020-01-16 19:00:00 8.3 17 Sur 45 Sur 0.2 -- -- 82
2020-01-16 18:00:00 8.3 16 Sudeste 32 Sudeste 0 -- -- 79
2020-01-16 17:00:00 9 11 Sur 38 Sur 0 -- -- 68
2020-01-16 16:00:00 9.5 20 Sur 44 Sur 0 -- -- 65
2020-01-16 15:00:00 10.3 21 Sur 51 Sur 0.1 -- -- 58
2020-01-16 14:00:00 11 23 Sur 48 Sur 0 -- -- 65
2020-01-16 13:00:00 10.1 22 Sur 48 Sudeste 0.2 -- -- 76
2020-01-16 12:00:00 10.4 19 Sur 37 Sur 0 -- -- 82
2020-01-16 11:00:00 10 15 Sur 30 Sur 0.4 -- -- 87
2020-01-16 10:00:00 9.9 21 Sur 39 Sur 0.7 -- -- 85
2020-01-16 09:00:00 10.2 16 Sur 34 Sur 0.1 -- -- 78
2020-01-16 08:00:00 10 18 Sudeste 38 Sudeste 0 -- -- 80
2020-01-16 07:00:00 10.6 19 Sur 35 Sur 0 -- -- 79
2020-01-16 06:00:00 10.6 18 Sur 32 Sur 0 -- -- 87
2020-01-16 05:00:00 9.6 15 Sur 36 Sudeste 0.4 -- -- 91
2020-01-16 04:00:00 9.6 19 Sudeste 39 Sudeste 0.1 -- -- 90
2020-01-16 03:00:00 9.8 22 Sudeste 40 Sudeste 0 -- -- 87
2020-01-16 02:00:00 10.5 22 Sudeste 41 Sur 0 -- -- 80
2020-01-16 01:00:00 11.2 21 Sur 37 Sur 0 -- -- 71
2020-01-16 00:00:00 11 18 Sur 39 Sur 0 -- -- 74
2020-01-15 23:00:00 10.6 18 Sur 36 Sudeste 0 -- -- 86
2020-01-15 22:00:00 9.6 21 Sudeste 32 Sudeste 0.1 -- -- 89
2020-01-15 21:00:00 9.4 17 Sudeste 29 Sudeste 0 -- -- 88
2020-01-15 20:00:00 9.5 16 Sudeste 29 Sudeste 0 -- -- 83
2020-01-15 19:00:00 9.3 12 Sudeste 19 Sudeste 0 -- -- 69
2020-01-15 18:00:00 11.5 8 Sur 26 Sur 0 -- -- 55
2020-01-15 17:00:00 13 13 Sur 28 Sudoeste 0 -- -- 52
2020-01-15 16:00:00 13.3 16 Sur 29 Sudoeste 0 -- -- 51
2020-01-15 15:00:00 13.4 17 Sur 28 Sur 0 -- -- 53
2020-01-15 14:00:00 12.1 14 Sur 27 Sudeste 0 -- -- 71
2020-01-15 13:00:00 9.7 14 Sudeste 25 Sudeste 0 -- -- 83
2020-01-15 12:00:00 8.4 12 Sudeste 21 Este 0 -- -- 89
2020-01-15 11:00:00 6.8 6 Sudeste 14 Sudeste 0 -- -- 89
2020-01-15 10:00:00 5.9 8 Este 14 Sudeste 0 -- -- 88
2020-01-15 09:00:00 6.3 5 Sudeste 31 Sur 1.2 -- -- 87
2020-01-15 08:00:00 6.5 10 Sur 44 Oeste 4.2 -- -- 89
2020-01-15 07:00:00 8 5 Noroeste 30 Noroeste 4.4 -- -- 88
2020-01-15 06:00:00 9.1 11 Sur 33 Sudoeste 1.6 -- -- 82
2020-01-15 05:00:00 9.7 15 Sur 35 Sur 0.2 -- -- 76
2020-01-15 04:00:00 9.7 18 Sudeste 45 Sur 0 -- -- 73
2020-01-15 03:00:00 9.5 17 Sur 39 Sur 0.3 -- -- 81
2020-01-15 02:00:00 7.6 17 Sudeste 39 Sur 0.9 -- -- 90
2020-01-15 01:00:00 8.7 17 Sur 39 Sudoeste 0.7 -- -- 91
2020-01-15 00:00:00 7.1 16 Sudeste 35 Sudeste 0.2 -- -- 91
2020-01-14 23:00:00 6.6 19 Sudeste 37 Sudeste 0.4 -- -- 89
2020-01-14 22:00:00 7.9 18 Sudeste 41 Sur 0.1 -- -- 80
2020-01-14 21:00:00 7.4 19 Sur 34 Sur 0.2 -- -- 82
2020-01-14 20:00:00 7.8 16 Sudeste 36 Sudeste 0 -- -- 75
2020-01-14 19:00:00 8.2 20 Sur 42 Sudeste 0 -- -- 73
2020-01-14 18:00:00 8.7 23 Sur 42 Sudeste 0 -- -- 70
2020-01-14 17:00:00 9 19 Sur 44 Sur 0 -- -- 71
2020-01-14 16:00:00 8.5 18 Sur 34 Sur 0 -- -- 75
2020-01-14 15:00:00 7.2 19 Sudeste 37 Sudeste 0 -- -- 80
2020-01-14 14:00:00 9.7 16 Sur 40 Sudoeste 0 -- -- 63
2020-01-14 13:00:00 10.6 22 Sur 44 Sur 0 -- -- 58
2020-01-14 12:00:00 8.7 13 Sur 30 Sur 0 -- -- 72
2020-01-14 11:00:00 6.1 17 Sudeste 34 Sudeste 0 -- -- 80
2020-01-14 10:00:00 5.4 15 Sur 32 Sudeste 0 -- -- 83
2020-01-14 09:00:00 5 21 Sudeste 33 Sudeste 0 -- -- 84
2020-01-14 08:00:00 4.7 19 Sudeste 35 Sudeste 0 -- -- 86
2020-01-14 07:00:00 4.3 21 Sudeste 34 Sudeste 0 -- -- 88
2020-01-14 06:00:00 4.4 17 Sudeste 31 Sudeste 0 -- -- 88
2020-01-14 05:00:00 4.3 13 Sudeste 31 Sudeste 0 -- -- 88
2020-01-14 04:00:00 4.2 17 Sudeste 32 Sudeste 0 -- -- 87
2020-01-14 03:00:00 4.6 19 Sudeste 34 Sur 0 -- -- 86
2020-01-14 02:00:00 5 20 Sudeste 35 Sur 0 -- -- 84
2020-01-14 01:00:00 5.7 15 Sudeste 27 Sudeste 0 -- -- 83
2020-01-14 00:00:00 5.3 15 Sudeste 29 Sudeste 0 -- -- 84
2020-01-13 23:00:00 5.1 13 Sudeste 32 Este 0 -- -- 82
2020-01-13 22:00:00 5.2 16 Sudeste 32 Sur 0 -- -- 77
2020-01-13 21:00:00 6.5 17 Sur 35 Sudoeste 0 -- -- 76
2020-01-13 20:00:00 6.1 11 Sur 29 Sur 0 -- -- 76
2020-01-13 19:00:00 5.9 13 Sur 26 Sur 0 -- -- 71
2020-01-13 18:00:00 6 15 Sur 30 Sur 0 -- -- 66
2020-01-13 17:00:00 7.7 12 Sudoeste 24 Sudoeste 0 -- -- 57
2020-01-13 16:00:00 9.6 14 Sudoeste 26 Sudoeste 0 -- -- 54
2020-01-13 15:00:00 7.7 12 Sur 28 Sudeste 0 -- -- 58
2020-01-13 14:00:00 8.9 11 Sudeste 24 Sudeste 0 -- -- 55
2020-01-13 13:00:00 6.1 9 Sudeste 26 Sudeste 0 -- -- 68
2020-01-13 12:00:00 3.8 12 Sudeste 22 Sudeste 0 -- -- 80
2020-01-13 11:00:00 1 12 Sudeste 19 Sudeste 0 -- -- 92
2020-01-13 10:00:00 0.1 8 Sudeste 23 Sudeste 0 -- -- 93
2020-01-13 09:00:00 0 13 Sudeste 23 Sudeste 0 -- -- 93
2020-01-13 08:00:00 0 12 Sudeste 19 Sudeste 0 -- -- 93
2020-01-13 07:00:00 -2.4 6 Sudeste 13 Sudeste 0 -- -- 93
2020-01-13 06:00:00 -3.8 4 Sudoeste 9 Oeste 0 -- -- 93
2020-01-13 05:00:00 -3.1 6 Sur 9 Sur 0 -- -- 93
2020-01-13 04:00:00 -3.5 6 Oeste 12 Oeste 0 -- -- 92
2020-01-13 03:00:00 -2.8 7 Oeste 9 Oeste 0 -- -- 92
2020-01-13 02:00:00 -2.7 3 Oeste 6 Sur 0 -- -- 91
2020-01-13 01:00:00 -2 3 Sudoeste 9 Sur 0 -- -- 90
2020-01-13 00:00:00 -1.7 5 Sudoeste 7 Sudoeste 0 -- -- 89
2020-01-12 23:00:00 -1 4 Sur 6 Sur 0 -- -- 88
2020-01-12 22:00:00 -0.9 2 Noroeste 4 Norte 0 -- -- 84
2020-01-12 21:00:00 0.2 0 Calma 8 Este 0 -- -- 79
2020-01-12 20:00:00 2.6 5 Sudoeste 9 Sudeste 0 -- -- 69
2020-01-12 19:00:00 5.5 4 Sudeste 6 Nordeste 0 -- -- 60
2020-01-12 18:00:00 10.3 4 Nordeste 6 Nordeste 0 -- -- 48
2020-01-12 17:00:00 12.4 4 Nordeste 6 Norte 0 -- -- 44
2020-01-12 16:00:00 12.2 0 Calma 8 Nordeste 0 -- -- 45
2020-01-12 15:00:00 11.4 0 Calma 7 Nordeste 0 -- -- 48
2020-01-12 14:00:00 8.3 2 Norte 6 Este 0 -- -- 63
2020-01-12 13:00:00 5.2 2 Este 6 Noroeste 0 -- -- 87
2020-01-12 12:00:00 1.4 0 Calma 4 Sudoeste 0 -- -- 94
2020-01-12 11:00:00 -2.5 0 Calma 4 Sudoeste 0 -- -- 94
2020-01-12 10:00:00 -6.3 0 Calma 3 Sudoeste 0 -- -- 94
2020-01-12 09:00:00 -8.3 0 Calma 6 Norte 0 -- -- 93
2020-01-12 08:00:00 -7.9 2 Sur 5 Noroeste 0 -- -- 93
2020-01-12 07:00:00 -7.8 0 Calma 3 Sudoeste 0 -- -- 93
2020-01-12 06:00:00 -7.1 2 Sudoeste 5 Oeste 0 -- -- 93
2020-01-12 05:00:00 -6.5 2 Sudoeste 6 Noroeste 0 -- -- 92
2020-01-12 04:00:00 -5.8 0 Calma 6 Sudeste 0 -- -- 92
2020-01-12 03:00:00 -5.1 2 Sudoeste 5 Sur 0 -- -- 91
2020-01-12 02:00:00 -3.9 3 Sur 5 Sudoeste 0 -- -- 90
2020-01-12 01:00:00 -3.6 4 Sudoeste 6 Sudoeste 0 -- -- 89
2020-01-12 00:00:00 -2.7 3 Sudoeste 7 Sur 0 -- -- 87
2020-01-11 23:00:00 -1.9 3 Oeste 5 Oeste 0 -- -- 84
2020-01-11 22:00:00 -0.1 4 Sudoeste 9 Sudoeste 0 -- -- 81
2020-01-11 21:00:00 1 4 Sur 7 Sur 0 -- -- 74
2020-01-11 20:00:00 2.7 0 Calma 12 Este 0 -- -- 65
2020-01-11 19:00:00 4.9 8 Sudeste 14 Este 0 -- -- 60
2020-01-11 18:00:00 7.1 9 Sudeste 19 Sudeste 0 -- -- 55
2020-01-11 17:00:00 9.1 12 Sudeste 22 Sudeste 0 -- -- 52
2020-01-11 16:00:00 9.8 12 Sudeste 23 Este 0 -- -- 49
2020-01-11 15:00:00 9.6 13 Sudeste 28 Sudeste 0 -- -- 52
2020-01-11 14:00:00 8.5 16 Sudeste 27 Sudeste 0 -- -- 56
2020-01-11 13:00:00 7.9 13 Sudeste 26 Sudeste 0 -- -- 61
2020-01-11 12:00:00 5.4 5 Sur 11 Sur 0 -- -- 94
2020-01-11 11:00:00 -0.4 3 Oeste 6 Oeste 0 -- -- 94
2020-01-11 10:00:00 -3.6 3 Sudoeste 9 Oeste 0 -- -- 94
2020-01-11 09:00:00 -5.6 5 Oeste 8 Sudoeste 0 -- -- 94
2020-01-11 08:00:00 -5.7 5 Sudoeste 6 Oeste 0 -- -- 94
2020-01-11 07:00:00 -5.5 4 Sudoeste 7 Oeste 0 -- -- 94
2020-01-11 06:00:00 -4.9 2 Sudoeste 5 Oeste 0 -- -- 93
2020-01-11 05:00:00 -4.7 3 Oeste 6 Oeste 0 -- -- 93
2020-01-11 04:00:00 -4.3 2 Sudoeste 7 Sudoeste 0 -- -- 93
2020-01-11 03:00:00 -4.2 0 Calma 2 Oeste 0 -- -- 92
2020-01-11 02:00:00 -4.4 0 Calma -- -- 0 -- -- 92
2020-01-11 01:00:00 -3.7 0 Calma 4 Oeste 0 -- -- 91
2020-01-11 00:00:00 -3.1 0 Calma 5 Sudoeste 0 -- -- 90
2020-01-10 23:00:00 -2.3 4 Sudoeste 5 Sudoeste 0 -- -- 89
2020-01-10 22:00:00 -1.8 0 Calma 3 Sudeste 0 -- -- 86
2020-01-10 21:00:00 -0.2 2 Sudeste 5 Sur 0 -- -- 82
2020-01-10 20:00:00 1.6 4 Sur 6 Sur 0 -- -- 79
2020-01-10 19:00:00 3.7 3 Sudoeste 5 Sudoeste 0 -- -- 71
2020-01-10 18:00:00 6.4 4 Noroeste 10 Noroeste 0 -- -- 63
2020-01-10 17:00:00 8.2 5 Norte 13 Noroeste 0 -- -- 61
2020-01-10 16:00:00 8.2 10 Norte 20 Noroeste 0 -- -- 64
2020-01-10 15:00:00 8 12 Norte 22 Nordeste 0 -- -- 65
2020-01-10 14:00:00 7.2 11 Norte 23 Norte 0 -- -- 71
2020-01-10 13:00:00 6.4 15 Norte 28 Norte 0 -- -- 77
2020-01-10 12:00:00 5.5 3 Norte 10 Noroeste 0 -- -- 90
2020-01-10 11:00:00 3.7 6 Noroeste 10 Noroeste 0 -- -- 93
2020-01-10 10:00:00 2.2 4 Sudoeste 7 Oeste 0 -- -- 93
2020-01-10 09:00:00 1.4 5 Noroeste 13 Noroeste 0 -- -- 93
2020-01-10 08:00:00 2.5 11 Noroeste 17 Noroeste 0 -- -- 93
2020-01-10 07:00:00 0.8 5 Sudoeste 10 Oeste 0 -- -- 93
2020-01-10 06:00:00 0.4 0 Calma 10 Oeste 0 -- -- 92
2020-01-10 05:00:00 0.5 5 Sudoeste 10 Sudoeste 0 -- -- 92
2020-01-10 04:00:00 1.2 6 Sudoeste 12 Oeste 0 -- -- 91
2020-01-10 03:00:00 1.7 6 Oeste 12 Oeste 0 -- -- 90
2020-01-10 02:00:00 2.8 8 Noroeste 15 Noroeste 0 -- -- 90
2020-01-10 01:00:00 1.7 7 Noroeste 13 Oeste 0 -- -- 88
2020-01-10 00:00:00 2.3 8 Noroeste 13 Noroeste 0 -- -- 88
2020-01-09 23:00:00 2.2 4 Oeste 9 Oeste 0 -- -- 87
2020-01-09 22:00:00 3.4 3 Oeste 13 Oeste 0 -- -- 86
2020-01-09 21:00:00 4.1 9 Noroeste 16 Oeste 0 -- -- 85
2020-01-09 20:00:00 4.8 8 Noroeste 16 Oeste 0 -- -- 82
2020-01-09 19:00:00 5.7 8 Noroeste 24 Noroeste 0 -- -- 79
2020-01-09 18:00:00 7 9 Noroeste 28 Noroeste 0 -- -- 82
2020-01-09 17:00:00 7.8 13 Noroeste 32 Noroeste 0 -- -- 83
2020-01-09 16:00:00 8.5 18 Noroeste -- -- -- -- -- 80
2020-01-09 15:00:00 9.3 18 Oeste 38 Oeste 0.2 -- -- 84
2020-01-09 14:00:00 10.6 17 Sudoeste 32 Sudoeste 0 -- -- 87
2020-01-09 13:00:00 11.2 8 Oeste 26 Sudoeste 0 -- -- 84
2020-01-09 12:00:00 11.1 12 Sudoeste 31 Sudoeste 0 -- -- 89
2020-01-09 11:00:00 8.5 8 Este 16 Este 0 -- -- 92
2020-01-09 10:00:00 8.5 3 Sur 14 Sudoeste 0 -- -- 92
2020-01-09 09:00:00 7.7 6 Sur 13 Sur 0 -- -- 92
2020-01-09 08:00:00 7.4 5 Sudeste 9 Sudeste 0 -- -- 92
2020-01-09 07:00:00 7.3 6 Sudeste 10 Sudeste 0 -- -- 92
2020-01-09 06:00:00 7.3 3 Sur 9 Sudeste 0 -- -- 92
2020-01-09 05:00:00 7.5 8 Sudeste 12 Sudeste 0 -- -- 92
2020-01-09 04:00:00 7.3 3 Sur 7 Sudeste 0 -- -- 92
2020-01-09 03:00:00 7.5 4 Sudeste 7 Sudeste 0 -- -- 91
2020-01-09 02:00:00 7.5 3 Sur 8 Sur 0 -- -- 90
2020-01-09 01:00:00 7.3 0 Calma 6 Oeste 0 -- -- 89
2020-01-09 00:00:00 6.8 0 Calma 8 Sudeste 0 -- -- 87
2020-01-08 23:00:00 7.7 3 Sur 6 Sudoeste 0 -- -- 87
2020-01-08 22:00:00 7.8 2 Nordeste 6 Norte 0 -- -- 84
2020-01-08 21:00:00 8.9 0 Calma 5 Sudeste 0 -- -- 81
2020-01-08 20:00:00 8.8 3 Este 8 Este 0 -- -- 77
2020-01-08 19:00:00 9.8 0 Calma 7 Noroeste 0 -- -- 69
2020-01-08 18:00:00 12 5 Noroeste 7 Noroeste 0 -- -- 63
2020-01-08 17:00:00 14.3 0 Calma 4 Sur 0 -- -- 58
2020-01-08 16:00:00 13.7 3 Este 6 Este 0 -- -- 58
2020-01-08 15:00:00 12.9 3 Norte 8 Nordeste 0 -- -- 53
2020-01-08 14:00:00 13.2 3 Nordeste 9 Nordeste 0 -- -- 58
2020-01-08 13:00:00 9.4 0 Calma 6 Noroeste 0 -- -- 70
2020-01-08 12:00:00 5.5 2 Sur 5 Sudoeste 0 -- -- 89
2020-01-08 11:00:00 0.9 0 Calma -- -- 0 -- -- 93
2020-01-08 10:00:00 -1.7 0 Calma -- -- 0 -- -- 93
2020-01-08 09:00:00 -4 0 Calma -- -- 0 -- -- 93
2020-01-08 08:00:00 -4.2 0 Calma -- -- 0 -- -- 93
2020-01-08 07:00:00 -4 0 Calma -- -- 0 -- -- 92
2020-01-08 06:00:00 -3.8 0 Calma 4 Sudeste 0 -- -- 92
2020-01-08 05:00:00 -3.5 0 Calma 6 Sudoeste 0 -- -- 92
2020-01-08 04:00:00 -3.6 2 Sudoeste 4 Oeste 0 -- -- 92
2020-01-08 03:00:00 -3.6 0 Calma 2 Sudeste 0 -- -- 91
2020-01-08 02:00:00 -3.4 0 Calma 3 Noroeste 0 -- -- 89
2020-01-08 01:00:00 -2.9 0 Calma 4 Oeste 0 -- -- 88
2020-01-08 00:00:00 -2.3 2 Sur 5 Sur 0 -- -- 86
2020-01-07 23:00:00 -1.7 3 Sur 7 Sudoeste 0 -- -- 83
2020-01-07 22:00:00 -0.7 4 Sudoeste 9 Sur 0 -- -- 78
2020-01-07 21:00:00 0 4 Sudoeste 5 Sur 0 -- -- 70
2020-01-07 20:00:00 1.8 0 Calma 6 Noroeste 0 -- -- 63
2020-01-07 19:00:00 4 2 Este 13 Sudeste 0 -- -- 54
2020-01-07 18:00:00 7.3 7 Sudeste 13 Sudeste 0 -- -- 47
2020-01-07 17:00:00 11 7 Sudeste 11 Este 0 -- -- 41
2020-01-07 16:00:00 12.4 2 Sur 7 Sur 0 -- -- 43
2020-01-07 15:00:00 10.3 0 Calma 7 Sudeste 0 -- -- 49
2020-01-07 14:00:00 8.9 0 Calma 8 Sudeste 0 -- -- 59
2020-01-07 13:00:00 6 2 Este 8 Oeste 0 -- -- 90
2020-01-07 12:00:00 1.1 5 Sudoeste 9 Sudoeste 0 -- -- 93
2020-01-07 11:00:00 -2 6 Sudoeste 9 Sudoeste 0 -- -- 94
2020-01-07 10:00:00 -4.5 5 Sudoeste 9 Sudoeste 0 -- -- 94
2020-01-07 09:00:00 -5.4 7 Sudoeste 12 Sudoeste 0 -- -- 94
2020-01-07 08:00:00 -5.7 6 Sudoeste 11 Sudoeste 0 -- -- 93
2020-01-07 07:00:00 -5.7 6 Sudoeste 10 Sur 0 -- -- 93
2020-01-07 06:00:00 -4.6 6 Sudoeste 11 Sur 0 -- -- 93
2020-01-07 05:00:00 -3.5 4 Sudeste 12 Sudeste 0 -- -- 93
2020-01-07 04:00:00 -3.2 8 Sudeste 16 Sudeste 0 -- -- 92
2020-01-07 03:00:00 -3.4 11 Sudeste 17 Sudeste 0 -- -- 92
2020-01-07 02:00:00 -4 0 Calma 9 Sur 0 -- -- 92
2020-01-07 01:00:00 -4.1 3 Sudoeste 4 Noroeste 0 -- -- 92
2020-01-07 00:00:00 -3.7 0 Calma 4 Sudeste 0 -- -- 91
2020-01-06 23:00:00 -3.2 3 Norte 5 Noroeste 0 -- -- 89
2020-01-06 22:00:00 -2.2 0 Calma 7 Sudoeste 0 -- -- 87
2020-01-06 21:00:00 -0.7 3 Sudoeste 8 Sur 0 -- -- 85
2020-01-06 20:00:00 0.4 2 Sudoeste 6 Sudeste 0 -- -- 81
2020-01-06 19:00:00 1.9 4 Norte 8 Norte 0 -- -- 74
2020-01-06 18:00:00 6 3 Noroeste 6 Sudeste 0 -- -- 64
2020-01-06 17:00:00 8.6 0 Calma 6 Sudeste 0 -- -- 63
2020-01-06 16:00:00 8.6 3 Este 8 Nordeste 0 -- -- 72
2020-01-06 15:00:00 6.7 2 Sur 6 Este 0 -- -- 92
2020-01-06 14:00:00 3.6 0 Calma 8 Sudoeste 0 -- -- 94
2020-01-06 13:00:00 1.5 4 Sudoeste 8 Sudoeste 0 -- -- 94
2020-01-06 12:00:00 -0.2 5 Sudoeste 9 Sur 0 -- -- 94
2020-01-06 11:00:00 -2.1 4 Sudoeste 7 Sudoeste 0 -- -- 94
2020-01-06 10:00:00 -5 0 Calma 3 Noroeste 0 -- -- 94